Location: Clermont
(50.2608°N, 4.3172°E)
Time: 19:52:36
(UTC+00:00)

Meteor 2-20 - Pass Details

Date: 13 August 2020
Orbit: 938 x 959 km, 82.5° (Epoch: 21 September)

Event Time Altitude Azimuth Distance (km) Brightness Sun altitude
Rises 19:47:09 0° 350° (N) 3,652 8.2 -6.8°
Reaches altitude 10° 19:49:41 10° 352° (N) 2,700 7.5 -7.2°
Maximum altitude 19:55:53 78° 79° (ENE) 981 4.5 -8.0°
Drops below altitude 10° 20:02:00 10° 166° (SSE) 2,669 6.4 -8.8°
Enters shadow 20:04:11 - 167° (SSE) 3,495 7.0 -9.1°
